This demonstration page uses our WeatherBlox Daily Observations layout. Learn more.

Left ArrowRight Arrow

Hourly Observations for July 1, 2017

Temp ( °F °C ) Dew Point ( °F °C ) Humidity (%) Winds ( mph kmh ) Pressure ( in mb ) Visibility ( mi km ) Precip ( " mm )
12:53 am 00:53 Clear 78 25.6 64 17.8 62 62 NNE 3 6 29.77 1008 10 16 0.00 0.00
1:53 am 01:53 Clear 77 25 60 15.6 56 56 N 5 7 29.78 1008 10 16 0.00 0.00
2:53 am 02:53 Clear 73 22.8 60 15.6 64 64 NW 5 7 29.78 1008 10 16 0.00 0.00
3:53 am 03:53 Clear 72 22.2 60 15.6 66 66 Calm 29.79 1009 10 16 0.00 0.00
4:53 am 04:53 Clear 70 21.1 62 16.7 76 76 SE 5 7 29.80 1009 10 16 0.00 0.00
5:53 am 05:53 Sunny 70 21.1 58 14.4 66 66 Calm 29.81 1010 10 16 0.00 0.00
6:53 am 06:53 Sunny 73 22.8 49 9.4 43 43 S 6 9 29.83 1010 10 16 0.00 0.00
7:53 am 07:53 Sunny 76 24.4 55 12.8 48 48 S 5 7 29.83 1010 10 16 0.00 0.00
8:53 am 08:53 Sunny 79 26.1 56 13.3 45 45 Calm 29.83 1010 10 16 0.00 0.00
9:53 am 09:53 Sunny 83 28.3 55 12.8 38 38 VRB 3 6 29.82 1010 10 16 0.00 0.00
10:53 am 10:53 Sunny 88 31.1 55 12.8 33 33 Calm 29.81 1009 10 16 0.00 0.00
11:53 am 11:53 Sunny 90 32.2 54 12.2 29 29 Calm 29.79 1009 10 16 0.00 0.00
12:53 pm 12:53 Sunny 94 34.4 54 12.2 26 26 Calm 29.77 1008 10 16 0.00 0.00
1:53 pm 13:53 Sunny 98 36.7 53 11.7 22 22 NNW 3 6 29.75 1007 10 16 0.00 0.00
2:53 pm 14:53 Sunny 100 37.8 51 10.6 19 19 W 6 9 29.73 1007 10 16 0.00 0.00
3:53 pm 15:53 Sunny 101 38.3 51 10.6 19 19 WSW 8 13 29.71 1006 10 16 0.00 0.00
4:53 pm 16:53 Sunny 102 38.9 49 9.4 17 17 Calm 29.69 1006 10 16 0.00 0.00
5:53 pm 17:53 Sunny 102 38.9 45 7.2 14 14 VRB 3 6 29.68 1005 10 16 0.00 0.00
6:53 pm 18:53 Sunny 99 37.2 57 13.9 25 25 S 12 19 29.68 1005 10 16 0.00 0.00
7:53 pm 19:53 Sunny 95 35 57 13.9 28 28 S 14 22 29.69 1005 10 16 0.00 0.00
8:53 pm 20:53 Clear 90 32.2 62 16.7 39 39 SSE 7 11 29.71 1006 10 16 0.00 0.00
9:53 pm 21:53 Clear 85 29.4 62 16.7 46 46 SE 5 7 29.74 1007 10 16 0.00 0.00
10:53 pm 22:53 Clear 83 28.3 61 16.1 48 48 Calm 29.76 1008 10 16 0.00 0.00
11:53 pm 23:53 Clear 81 27.2 62 16.7 53 53 NE 3 6 29.77 1008 10 16 0.00 0.00

Powered by AerisWeather